This demonstration page uses our WeatherBlox Daily Observations layout. Learn more.

Left ArrowRight Arrow

Hourly Observations for November 18, 2015

Temp ( °F °C ) Dew Point ( °F °C ) Humidity (%) Winds ( mph kmh ) Pressure ( in mb ) Visibility ( mi km ) Precip ( " mm )
12:53 am 00:53 Cloudy 61 16.1 53 11.7 75 75 ESE 15 24 30.10 1019 10 16 0.00 0.00
1:16 am 01:16 Cloudy with Light Rain 61 16 54 12 77 77 E 14 22 30.12 1020 10 16 0.00 0.00
1:53 am 01:53 Cloudy 59 15 54 12.2 83 83 E 15 24 30.09 1019 10 16 0.00 0.03
2:00 am 02:00 Cloudy 59 15 55 13 88 88 E 15 24 30.09 1019 9 14 0.00 0.00
2:53 am 02:53 Cloudy with Light Rain 58 14.4 55 12.8 90 90 E 10 17 30.08 1019 7 11 0.00 0.03
3:53 am 03:53 Cloudy 57 13.9 54 12.2 90 90 E 9 15 30.06 1018 10 16 0.00 0.03
4:53 am 04:53 Cloudy 57 13.9 53 11.7 87 87 E 9 15 30.05 1018 10 16 0.00 0.00
5:53 am 05:53 Cloudy 57 13.9 53 11.7 87 87 E 9 15 30.04 1017 9 14 0.00 0.00
6:53 am 06:53 Cloudy with Light Rain 57 13.9 54 12.2 90 90 E 9 15 30.03 1017 9 14 0.00 0.03
7:53 am 07:53 Cloudy with Mist and Fog 57 13.9 55 12.8 93 93 E 9 15 30.03 1017 4 6 0.00 0.03
8:53 am 08:53 Cloudy with Light Rain 58 14.4 56 13.3 93 93 VRB 5 7 30.04 1017 3 5 0.02 0.51
9:53 am 09:53 Cloudy with Light Rain 60 15.6 57 13.9 90 90 E 8 13 30.02 1017 3 5 0.02 0.51
10:53 am 10:53 Cloudy with Light Rain 62 16.7 60 15.6 93 93 E 7 11 30.00 1016 8 13 0.01 0.25
11:53 am 11:53 Cloudy with Light Rain 64 17.8 62 16.7 93 93 ESE 7 11 29.99 1016 3 5 0.02 0.51
12:53 pm 12:53 Cloudy 68 20 64 17.8 87 87 ESE 7 11 29.96 1014 10 16 0.01 0.25
1:53 pm 13:53 Cloudy 70 21.1 66 18.9 87 87 SSE 12 19 29.93 1013 10 16 0.00 0.03
2:00 pm 14:00 Cloudy with Light Rain 70 21 66 19 88 88 SE 10 17 29.91 1013 10 16 0.00 0.00
2:53 pm 14:53 Cloudy 71 21.7 66 18.9 84 84 SE 10 17 29.91 1013 10 16 0.00 0.03
3:29 pm 15:29 Cloudy 71 21.7 66 18.9 84 84 SSE 13 20 29.91 1013 10 16 0.00 0.00
3:53 pm 15:53 Cloudy 71 21.7 66 18.9 84 84 VRB 6 9 29.91 1013 10 16 0.00 0.00
4:53 pm 16:53 Cloudy with Heavy Rain 70 21.1 67 19.4 90 90 VRB 3 6 29.92 1013 2 3 0.12 3.05
5:00 pm 17:00 Cloudy with Heavy Rain 69 20.6 67 19.4 93 93 VRB 6 9 29.94 1014 2 3 0.05 1.27
5:05 pm 17:05 Cloudy with Heavy Rain 69 20.6 67 19.4 93 93 WNW 15 24 29.94 1014 3 4 0.08 2.03
5:11 pm 17:11 Cloudy with Nearby Thunderstorms 66 18.9 62 16.7 87 87 WSW 14 22 29.97 1015 2 3 0.20 5.08
5:14 pm 17:14 Cloudy with Strong Thunderstorms 66 19 63 17 88 88 SW 10 17 29.97 1015 2 3 0.00 0.00
5:22 pm 17:22 Cloudy with Strong Thunderstorms 64 18 63 17 94 94 VRB 6 9 29.97 1015 1 1 0.00 0.00
5:30 pm 17:30 Cloudy with Strong Thunderstorms 64 18 63 17 94 94 SE 9 15 29.94 1014 1 2 0.00 0.00
5:37 pm 17:37 Cloudy with Thunderstorms 65 18.3 62 16.7 90 90 SE 6 9 29.94 1014 3 5 0.39 9.91
5:39 pm 17:39 Cloudy with Nearby Thunderstorms 65 18.3 62 16.7 90 90 SE 6 9 29.94 1014 4 6 0.41 10.41
5:53 pm 17:53 Cloudy with Nearby Thunderstorms 65 18.3 62 16.7 90 90 SE 5 7 29.91 1013 10 16 0.49 12.45
6:09 pm 18:09 Cloudy with Light Rain 65 18.3 62 16.7 90 90 SE 6 9 29.94 1014 10 16 0.08 2.03
6:53 pm 18:53 Cloudy with Rain 65 18.3 62 16.7 90 90 SE 6 9 29.94 1014 8 13 0.25 6.35
7:15 pm 19:15 Cloudy with Heavy Rain 65 18.3 62 16.7 90 90 SE 7 11 29.97 1015 5 8 0.07 1.78
7:53 pm 19:53 Cloudy with Light Rain 64 17.8 62 16.7 93 93 E 3 6 29.91 1013 10 16 0.16 4.06
8:07 pm 20:07 Cloudy 64 17.8 62 16.7 93 93 SE 5 7 29.94 1014 10 16 0.04 1.02
8:30 pm 20:30 Cloudy with Rain 64 18 63 17 94 94 E 3 6 29.94 1014 6 10 0.00 0.00
8:51 pm 20:51 Cloudy 64 18 63 17 94 94 ESE 3 6 29.97 1015 10 16 0.12 3.05
8:53 pm 20:53 Cloudy 64 17.8 62 16.7 93 93 ESE 5 7 29.94 1014 10 16 0.13 3.30
9:28 pm 21:28 Cloudy 65 18.3 62 16.7 90 90 S 7 11 29.97 1015 10 16 0.05 1.27
9:53 pm 21:53 Cloudy 65 18.3 62 16.7 90 90 SSE 12 19 29.96 1014 10 16 0.08 2.03
10:00 pm 22:00 Cloudy 64 18 63 17 94 94 S 9 15 29.97 1015 10 16 0.00 0.00
10:53 pm 22:53 Cloudy 65 18.3 62 16.7 90 90 SSW 3 6 29.95 1014 8 13 0.04 1.02
11:53 pm 23:53 Cloudy 65 18.3 63 17.2 93 93 Calm 29.97 1015 10 16 0.01 0.25

Powered by AerisWeather